Other Public Products
Issued by NWS Charleston, SC

Current Version | Previous Version | Graphics & Text | Print | Product List | Glossary On
Versions: 1 2 3 4 5 6 7 8 9 10 11 12 13 14 15 16 17 18 19 20 21 22 23 24 25 26 27 28 29 30 31 32 33 34 35 36 37 38 39 40 41 42 43 44 45 46 47 48 49 50
000
FPUS82 KCHS 210225
OPUCHS

TEST...KCHS/KSAV Gateway Observations...TEST
National Weather Service Charleston SC
1000 PM EDT WED SEP 20 2017

NOTE: "fair" indicates few or no clouds below 12,000 feet with no
significant weather and/or obstructions to visibility.

SCZ050-WAZ558-NCZ071-TXZ119-213-PAZ071-DCZ001-FLZ074-172-MI076-
NYZ176-178-MAZ016-IL014-TNZ027-NJZ106-GAZ044-MD014-210300-

...Gateway Observations for Charleston International...

CITY           SKY/WX    TMP DP  RH WIND       PRES   REMARKS
Chas Airport   CLEAR     76  72  87 S5        30.01R
Seattle        MOCLDY    54  47  77 S3        29.79R
Charlotte      PTCLDY    77  70  79 S3        30.02R
Dallas DFW     PTCLDY    90  70  51 S15G22    29.83R HX  95
Dallas Love    PTCLDY    90  70  51 S17G24    29.84R HX  95
Philladelphia  PTCLDY    77  64  64 NE3       29.94R
Wash National  PTCLDY    75  66  73 CALM      29.97R
Baltimore      CLEAR     66  64  93 W5        29.96R
Miami          CLOUDY    85  74  69 E8        29.98R HX  92
Detroit        PTCLDY    71  67  87 SE3       30.00S
Newark         CLOUDY    76  63  64 N9        29.92S
Laguardia      CLOUDY    76  65  68 N12       29.91S
J F K          CLOUDY    76  63  64 N15       29.92S
Boston Logan   CLOUDY    71  66  84 N18G26    29.88R
Ft. Lauderdale CLOUDY    81  76  84 E9        29.97R
Chicago O`Hare PTCLDY    83  66  56 S12       29.86R
Chicago Midway PTCLDY    86  67  52 S12       29.87R
Houston Bush   PTCLDY    82  76  81 SE10      29.92R
Houston Hobby  MOCLDY    82  77  84 SE3       29.92R HX  90
Nashville      PTCLDY    78  69  73 SW5       30.02R
Atlanta        PTCLDY    78  67  68 N7        30.04R

$$

GAZ044-118-TXZ119-213-NCZ071-DCZ001-MDZ014-506-PAZ021-071-NJZ106-
NYZ176-178-MAZ106-OHZ011-021-055-MIZ076-KYZ091-ILZ014-INZ047-
MNZ060-ONZ431-210300-

...Gateway Observations for Savannah International...

CITY           SKY/WX    TMP DP  RH WIND       PRES   REMARKS
Savannah Arpt  PTCLDY    75  70  84 S3        30.02R
Atlanta        PTCLDY    78  67  68 N7        30.04R
Charlotte      PTCLDY    77  70  79 S3        30.02R
Dallas DFW     PTCLDY    90  70  51 S15G22    29.83R HX  95
Houston Bush   PTCLDY    82  76  81 SE10      29.92R
Wash National  PTCLDY    75  66  73 CALM      29.97R
Wash Dulles    PTCLDY    67  63  87 NW3       29.99R
Baltimore      CLEAR     66  64  93 W5        29.96R
Philadelphia   PTCLDY    77  64  64 NE3       29.94R
Newark         CLOUDY    76  63  64 N9        29.92S
Laguardia      CLOUDY    76  65  68 N12       29.91S
J F K          CLOUDY    76  63  64 N15       29.92S
Boston         CLOUDY    71  66  84 N18G26    29.88R
Pittsburg      PTCLDY    71  66  84 CALM      30.05R
Akron          PTCLDY    70  63  78 NE3       30.05R
Cleveland      PTCLDY    76  62  62 E5        30.04S
Cincinnati     CLEAR     73  69  87 CALM      30.02S
Columbus       PTCLDY    69  66  93 SE3       30.02S
Detroit        PTCLDY    71  67  87 SE3       30.00S
Chicago O`Hare PTCLDY    83  66  56 S12       29.86R
Minneapolis    CLEAR     66  52  60 NW5       29.89R
Indianapolis   CLEAR     78  69  73 S12       29.97S
Toronto Canada CLEAR     72  59  64 E5        30.03S

$$




USA.gov is the U.S. government's official web portal to all federal, state and local government web resources and services.